Location: Florence
(33.9745°N, 118.2481°W)
Time: 18:58:27
(UTC+00:00)

SL-4 R/B - Pass Details

Date: 23 March 2023
Orbit: 421 x 634 km, 51.6° (Epoch: 06 June)

Event Time Altitude Azimuth Distance (km) Brightness Sun altitude
Exits shadow 12:34:17 37° 234° (SW) 777 2.3 -17.0°
Maximum altitude 12:34:23 37° 230° (SW) 775 2.3 -16.9°
Drops below altitude 10° 12:37:47 10° 161° (SSE) 1,619 4.5 -16.2°
Sets 12:39:56 0° 153° (SSE) 2,457 5.5 -15.8°
